Location: Unspecified
(43.4680°N, 87.1740°E)
Time: 21:47:19
(UTC+00:00)

CZ-4 R/B - Pass Details

Date: 17 April 2021
Orbit: 531 x 598 km, 97.7° (Epoch: 12 May)

Event Time Altitude Azimuth Distance (km) Brightness Sun altitude
Rises 13:22:04 0° 186° (S) 2,823 4.8 -5.2°
Reaches altitude 10° 13:24:21 10° 195° (SSW) 1,929 4.1 -5.6°
Maximum altitude 13:28:15 36° 263° (W) 949 3.2 -6.2°
Drops below altitude 10° 13:32:10 10° 330° (NNW) 1,942 5.0 -6.9°
Sets 13:34:29 0° 339° (NNW) 2,845 5.7 -7.3°
